星链-2169 (STARLINK-2169 )

导读

STARLINK-2169是美国SpaceX公司星链(Starlink)星座的卫星,于2021年3月4日发射入轨。它属于星链低轨宽带通信卫星,运行在约1150公里轨道,配备Ku/Ka波段通信载荷、光学星间链路,采用氪工质霍尔推进器,具备自主避撞能力,旨在为全球提供宽带互联网服务,设计寿命5-7年,退役后会坠入大气层烧毁。

基本信息
目录编号:
47752
目录名称:
STARLINK-2169
国际标识:
2021-017AG
轨道中心:
EARTH
卫星名称:
星链-2169
卫星全名:
星链-2169 (STARLINK-2169 )
卫星状态:
在轨 (已飞行1932 天)
发射日期:
2021-03-04 UTC
国别 :
美国 (US)
星等 :
--
轨道信息
数据来源 国际轨道数据
星历时间: 2026-06-18T16:00:02+0800
9小时前
查看轨道信息
半长轴: 6725.083km
偏心率: 0.0000949
轨道倾角: 53.152°
近地点辐角 108.949°
升交点赤经 81.295°
平近点角 170.013°
近地点: 346.307km
远地点: 347.585km
周期: 91.476分钟
每日圈数: 15.741872
详细信息
固有亮度:
5
最大亮度:
2.5
卫星平台:
Starlink V1.0
覆盖范围:
全球
运营商:
太空探索技术公司
运营商所在国:
美国
制造商(研发单位):
太空探索技术公司
制造商所在国:
美国
使用方式:
暂无
卫星简介
星链(Starlink)计划是由太空探索技术公司(SpaceX)提出的一个巨型低轨卫星互联网星座项目,计划在2019年至2024年间在太空搭建由约1.2万颗卫星组成的“星链”网络,其中1584颗将部署在地球上空550千米处的近地轨道,并从2020年开始工作。该卫星仍在工作。
2D轨道图
3D轨道图
轨道高度分析图
轨道倾角分析图
轨道综合分析图
查看轨道综合分析图